Location: Pinawa
(50.1500°N, 95.8830°W)
Time: 12:21:41
(UTC-05:00)

ISS - All Passes

Search period start: 03 July 2015 00:00
Search period end: 13 July 2015 00:00
Orbit: 398 x 403 km, 51.6° (Epoch: 03 July)

Date Brightness Start Highest point End Pass type
(mag) Time Alt. Az. Time Alt. Az. Time Alt. Az.
03 Jul - 09:17:32 10° S 09:19:33 16° SE 09:21:39 10° E daylight
03 Jul - 10:52:18 10° WSW 10:55:32 65° SSE 10:58:45 10° ENE daylight
03 Jul - 12:28:44 10° W 12:31:58 65° N 12:35:12 10° E daylight
03 Jul - 14:05:13 10° WNW 14:08:28 84° SSW 14:11:43 10° ESE daylight
03 Jul - 15:41:57 10° W 15:44:34 22° SW 15:47:09 10° SSE daylight
04 Jul - 09:58:59 10° SW 10:02:05 43° SSE 10:05:12 10° E daylight
04 Jul - 11:35:10 10° W 11:38:25 71° N 11:41:40 10° ENE daylight
04 Jul - 13:11:42 10° WNW 13:14:58 77° NNE 13:18:13 10° E daylight
04 Jul - 14:48:13 10° W 14:51:13 35° SSW 14:54:13 10° SE daylight
05 Jul - 09:05:52 10° SSW 09:08:42 28° SSE 09:11:32 10° E daylight
05 Jul - 10:41:37 10° WSW 10:44:53 86° N 10:48:08 10° ENE daylight
05 Jul - 12:18:09 10° WNW 12:21:24 67° N 12:24:38 10° E daylight
05 Jul - 13:54:37 10° WNW 13:57:48 54° SSW 14:00:58 10° SE daylight
05 Jul - 15:32:10 10° WSW 15:33:40 12° SW 15:35:05 10° SSW daylight
06 Jul - 08:13:08 10° S 08:15:21 18° SE 08:17:38 10° E daylight
06 Jul - 09:48:06 10° WSW 09:51:21 70° SSE 09:54:36 10° ENE daylight
06 Jul - 11:24:35 10° W 11:27:49 64° N 11:31:03 10° E daylight
06 Jul - 13:01:04 10° WNW 13:04:18 78° SSW 13:07:33 10° ESE daylight
06 Jul - 14:37:51 10° W 14:40:22 20° SW 14:42:50 10° SSE daylight
07 Jul - 07:21:25 10° SSE 07:22:03 11° SE 07:22:48 10° ESE daylight
07 Jul - 08:54:44 10° SW 08:57:52 47° SSE 09:01:01 10° ENE daylight
07 Jul - 10:30:59 10° W 10:34:13 69° N 10:37:29 10° ENE daylight
07 Jul - 12:07:30 10° WNW 12:10:46 80° NNE 12:14:01 10° E daylight
07 Jul - 13:44:03 10° W 13:46:59 32° SSW 13:49:55 10° SSE daylight
08 Jul - 08:01:32 10° SSW 08:04:26 30° SSE 08:07:21 10° E daylight
08 Jul - 09:37:23 10° WSW 09:40:38 82° NNW 09:43:54 10° ENE daylight
08 Jul - 11:13:56 10° WNW 11:17:10 68° N 11:20:25 10° E daylight
08 Jul - 12:50:23 10° WNW 12:53:33 49° SSW 12:56:41 10° SE daylight
08 Jul - 14:28:19 10° WSW 14:29:22 11° SW 14:30:20 10° SSW daylight
09 Jul - 07:08:39 10° S 07:11:02 19° SE 07:13:29 10° E daylight
09 Jul - 08:43:50 10° WSW 08:47:04 76° SSE 08:50:20 10° ENE daylight
09 Jul - 10:20:19 10° W 10:23:33 64° N 10:26:48 10° E daylight
09 Jul - 11:56:47 10° WNW 12:00:02 73° SSW 12:03:16 10° ESE daylight
09 Jul - 13:33:41 10° W 13:36:03 18° SW 13:38:21 10° S daylight
10 Jul - 06:16:28 10° SSE 06:17:41 12° SE 06:19:01 10° ESE daylight
10 Jul - 07:50:23 10° SW 07:53:33 52° SSE 07:56:44 10° ENE daylight
10 Jul - 09:26:41 10° W 09:29:56 67° N 09:33:10 10° ENE daylight
10 Jul - 11:03:11 10° WNW 11:06:27 84° NNE 11:09:43 10° ESE daylight
10 Jul - 12:39:46 10° W 12:42:39 29° SSW 12:45:30 10° SSE daylight
11 Jul - 06:57:06 10° SW 07:00:03 33° SSE 07:03:03 10° E daylight
11 Jul - 08:33:03 10° W 08:36:18 79° NNW 08:39:34 10° ENE daylight
11 Jul - 10:09:35 10° WNW 10:12:50 70° N 10:16:05 10° E daylight
11 Jul - 11:46:02 10° W 11:49:10 45° SSW 11:52:17 10° SE daylight
12 Jul - 06:04:06 10° SSW 06:06:37 21° SE 06:09:12 10° E daylight
12 Jul - 07:39:26 10° WSW 07:42:41 81° SSE 07:45:57 10° ENE daylight
12 Jul - 09:15:56 10° W 09:19:11 64° N 09:22:25 10° E daylight
12 Jul - 10:52:24 10° WNW 10:55:38 68° SSW 10:58:52 10° ESE daylight
12 Jul - 12:29:25 10° W 12:31:36 17° SW 12:33:44 10° S daylight
